Time,TemperatureF,DewpointF,PressureIn,WindDirection,WindDirectionDegrees,WindSpeedMPH,WindSpeedGustMPH,Humidity,HourlyPrecipIn,Conditions,Clouds,dailyrainin,SoftwareType,DateUTC
2013-01-13 00:05:00,47.4,45.0,30.62,NNW,342,5.0,-999.0,92,-99.99,,,0.00,weatherlink.com 1.10,2013-01-13 06:05:00,
2013-01-13 00:20:00,46.7,45.0,30.62,NNW,343,4.0,-999.0,92,-99.99,,,0.00,weatherlink.com 1.10,2013-01-13 06:20:00,
2013-01-13 00:35:00,46.1,44.0,30.64,North,349,5.0,-999.0,93,-99.99,,,0.00,weatherlink.com 1.10,2013-01-13 06:35:00,
2013-01-13 00:50:00,45.2,43.0,30.65,NNW,347,4.0,-999.0,92,-99.99,,,0.01,weatherlink.com 1.10,2013-01-13 06:50:00,
2013-01-13 01:05:00,44.7,43.0,30.65,NNW,342,10.0,-999.0,93,-99.99,,,0.01,weatherlink.com 1.10,2013-01-13 07:05:00,
2013-01-13 01:20:00,44.1,42.0,30.66,NNW,345,7.0,-999.0,93,-99.99,,,0.01,weatherlink.com 1.10,2013-01-13 07:20:00,
2013-01-13 01:35:00,43.5,42.0,30.68,NNW,335,8.0,-999.0,93,-99.99,,,0.01,weatherlink.com 1.10,2013-01-13 07:35:00,
2013-01-13 01:50:00,43.3,42.0,30.65,NNW,347,10.0,-999.0,93,-99.99,,,0.01,weatherlink.com 1.10,2013-01-13 07:50:00,
2013-01-13 02:05:00,43.2,41.0,30.70,NNW,340,5.0,-999.0,93,-99.99,,,0.02,weatherlink.com 1.10,2013-01-13 08:05:00,
2013-01-13 02:20:00,43.1,41.0,30.70,North,350,10.0,-999.0,93,-99.99,,,0.02,weatherlink.com 1.10,2013-01-13 08:20:00,
2013-01-13 02:35:00,42.3,41.0,30.70,NNW,341,7.0,-999.0,93,-99.99,,,0.04,weatherlink.com 1.10,2013-01-13 08:35:00,
2013-01-13 02:50:00,41.8,40.0,30.70,North,351,6.0,-999.0,93,-99.99,,,0.05,weatherlink.com 1.10,2013-01-13 08:50:00,
2013-01-13 03:05:00,41.8,40.0,30.71,North,350,0.0,-999.0,92,-99.99,,,0.05,weatherlink.com 1.10,2013-01-13 09:05:00,
2013-01-13 03:20:00,41.9,40.0,30.72,NNW,344,10.0,-999.0,92,-99.99,,,0.05,weatherlink.com 1.10,2013-01-13 09:20:00,
2013-01-13 03:35:00,41.7,40.0,30.72,West,269,0.0,-999.0,92,-99.99,,,0.06,weatherlink.com 1.10,2013-01-13 09:35:00,
2013-01-13 03:50:00,41.2,39.0,30.72,North,355,6.0,-999.0,92,-99.99,,,0.06,weatherlink.com 1.10,2013-01-13 09:50:00,
2013-01-13 04:05:00,40.6,39.0,30.73,North,355,13.0,-999.0,92,-99.99,,,0.06,weatherlink.com 1.10,2013-01-13 10:05:00,
2013-01-13 04:20:00,40.4,38.0,30.73,NNW,329,8.0,-999.0,92,-99.99,,,0.06,weatherlink.com 1.10,2013-01-13 10:20:00,
2013-01-13 04:35:00,40.2,38.0,30.73,NNW,343,5.0,-999.0,92,-99.99,,,0.07,weatherlink.com 1.10,2013-01-13 10:35:00,
2013-01-13 04:50:00,40.2,38.0,30.76,NNW,337,4.0,-999.0,92,-99.99,,,0.07,weatherlink.com 1.10,2013-01-13 10:50:00,
2013-01-13 05:05:00,40.1,38.0,30.76,NNW,339,3.0,-999.0,92,-99.99,,,0.07,weatherlink.com 1.10,2013-01-13 11:05:00,
2013-01-13 05:20:00,40.2,38.0,30.77,NNW,347,9.0,-999.0,92,-99.99,,,0.09,weatherlink.com 1.10,2013-01-13 11:20:00,
2013-01-13 05:35:00,39.1,37.0,30.77,NNW,338,6.0,-999.0,91,-99.99,,,0.09,weatherlink.com 1.10,2013-01-13 11:35:00,
2013-01-13 05:50:00,39.1,37.0,30.77,NNW,340,6.0,-999.0,91,-99.99,,,0.09,weatherlink.com 1.10,2013-01-13 11:50:00,
2013-01-13 06:05:00,39.1,37.0,30.79,North,350,9.0,-999.0,91,-99.99,,,0.09,weatherlink.com 1.10,2013-01-13 12:05:00,
2013-01-13 06:21:00,39.1,37.0,30.79,North,5,13.0,-999.0,91,-99.99,,,0.09,weatherlink.com 1.10,2013-01-13 12:21:00,
2013-01-13 06:36:00,38.7,36.0,30.79,North,5,6.0,-999.0,91,-99.99,,,0.09,weatherlink.com 1.10,2013-01-13 12:36:00,
2013-01-13 06:51:00,38.7,36.0,30.82,NE,34,4.0,-999.0,91,-99.99,,,0.09,weatherlink.com 1.10,2013-01-13 12:51:00,
2013-01-13 07:06:00,38.5,36.0,30.83,NNW,334,8.0,-999.0,90,-99.99,,,0.09,weatherlink.com 1.10,2013-01-13 13:06:00,
2013-01-13 07:21:00,38.5,36.0,30.82,NW,324,5.0,-999.0,90,-99.99,,,0.09,weatherlink.com 1.10,2013-01-13 13:21:00,
2013-01-13 07:36:00,38.5,36.0,30.83,NNW,338,6.0,-999.0,90,-99.99,,,0.10,weatherlink.com 1.10,2013-01-13 13:36:00,
2013-01-13 07:51:00,38.6,36.0,30.83,NNW,348,6.0,-999.0,90,-99.99,,,0.10,weatherlink.com 1.10,2013-01-13 13:51:00,
2013-01-13 08:06:00,38.5,36.0,30.86,North,355,10.0,-999.0,89,-99.99,,,0.10,weatherlink.com 1.10,2013-01-13 14:06:00,
2013-01-13 08:21:00,38.6,36.0,30.87,North,350,7.0,-999.0,89,-99.99,,,0.10,weatherlink.com 1.10,2013-01-13 14:21:00,
2013-01-13 08:36:00,38.7,36.0,30.88,NNW,348,2.0,-999.0,89,-99.99,,,0.10,weatherlink.com 1.10,2013-01-13 14:36:00,
2013-01-13 08:51:00,38.8,36.0,30.89,NNW,338,7.0,-999.0,88,-99.99,,,0.10,weatherlink.com 1.10,2013-01-13 14:51:00,
2013-01-13 09:06:00,38.8,35.0,30.89,North,350,18.0,-999.0,87,-99.99,,,0.10,weatherlink.com 1.10,2013-01-13 15:06:00,
2013-01-13 09:21:00,39.0,35.0,30.91,North,355,12.0,-999.0,86,-99.99,,,0.10,weatherlink.com 1.10,2013-01-13 15:21:00,
2013-01-13 09:36:00,39.3,35.0,30.92,North,355,7.0,-999.0,84,-99.99,,,0.10,weatherlink.com 1.10,2013-01-13 15:36:00,
2013-01-13 09:51:00,39.9,35.0,30.93,North,5,15.0,-999.0,83,-99.99,,,0.10,weatherlink.com 1.10,2013-01-13 15:51:00,
2013-01-13 10:06:00,39.9,35.0,30.94,North,355,7.0,-999.0,83,-99.99,,,0.10,weatherlink.com 1.10,2013-01-13 16:06:00,
2013-01-13 10:21:00,40.1,35.0,30.93,North,355,5.0,-999.0,83,-99.99,,,0.10,weatherlink.com 1.10,2013-01-13 16:21:00,
2013-01-13 10:36:00,40.6,36.0,30.93,NNW,340,9.0,-999.0,82,-99.99,,,0.10,weatherlink.com 1.10,2013-01-13 16:36:00,
2013-01-13 10:51:00,41.3,36.0,30.94,NNW,342,3.0,-999.0,80,-99.99,,,0.10,weatherlink.com 1.10,2013-01-13 16:51:00,
2013-01-13 11:06:00,41.8,36.0,30.94,NNW,347,7.0,-999.0,79,-99.99,,,0.10,weatherlink.com 1.10,2013-01-13 17:06:00,
2013-01-13 11:21:00,41.5,35.0,30.93,North,355,10.0,-999.0,79,-99.99,,,0.10,weatherlink.com 1.10,2013-01-13 17:21:00,
2013-01-13 11:36:00,42.6,36.0,30.94,North,350,6.0,-999.0,78,-99.99,,,0.10,weatherlink.com 1.10,2013-01-13 17:36:00,
2013-01-13 11:51:00,43.2,36.0,30.93,NNW,328,13.0,-999.0,76,-99.99,,,0.10,weatherlink.com 1.10,2013-01-13 17:51:00,
2013-01-13 12:06:00,43.6,37.0,30.93,NNW,340,8.0,-999.0,76,-99.99,,,0.10,weatherlink.com 1.10,2013-01-13 18:06:00,
2013-01-13 12:21:00,45.6,38.0,30.92,North,350,4.0,-999.0,76,-99.99,,,0.10,weatherlink.com 1.10,2013-01-13 18:21:00,
2013-01-13 12:36:00,45.9,38.0,30.91,NNW,344,11.0,-999.0,73,-99.99,,,0.10,weatherlink.com 1.10,2013-01-13 18:36:00,
2013-01-13 12:52:00,46.3,38.0,30.90,NNW,333,7.0,-999.0,73,-99.99,,,0.10,weatherlink.com 1.10,2013-01-13 18:52:00,
2013-01-13 13:06:00,46.6,38.0,30.90,NNE,32,3.0,-999.0,72,-99.99,,,0.10,weatherlink.com 1.10,2013-01-13 19:06:00,
2013-01-13 13:21:00,45.7,37.0,30.91,North,360,6.0,-999.0,72,-99.99,,,0.10,weatherlink.com 1.10,2013-01-13 19:21:00,
2013-01-13 13:36:00,46.8,38.0,30.91,North,349,7.0,-999.0,71,-99.99,,,0.10,weatherlink.com 1.10,2013-01-13 19:36:00,
2013-01-13 13:51:00,47.2,37.0,30.90,NNE,20,3.0,-999.0,69,-99.99,,,0.10,weatherlink.com 1.10,2013-01-13 19:51:00,
2013-01-13 14:06:00,48.1,38.0,30.90,North,355,5.0,-999.0,68,-99.99,,,0.10,weatherlink.com 1.10,2013-01-13 20:06:00,
2013-01-13 14:21:00,48.9,38.0,30.91,East,98,2.0,-999.0,67,-99.99,,,0.10,weatherlink.com 1.10,2013-01-13 20:21:00,
2013-01-13 14:36:00,49.4,39.0,30.90,NNE,16,10.0,-999.0,68,-99.99,,,0.10,weatherlink.com 1.10,2013-01-13 20:36:00,
2013-01-13 14:51:00,50.0,39.0,30.90,NNE,22,6.0,-999.0,67,-99.99,,,0.10,weatherlink.com 1.10,2013-01-13 20:51:00,
2013-01-13 15:06:00,49.5,39.0,30.89,North,360,6.0,-999.0,67,-99.99,,,0.10,weatherlink.com 1.10,2013-01-13 21:06:00,
2013-01-13 15:21:00,49.5,38.0,30.89,North,350,5.0,-999.0,66,-99.99,,,0.10,weatherlink.com 1.10,2013-01-13 21:21:00,
2013-01-13 15:36:00,49.3,39.0,30.91,NNW,331,6.0,-999.0,67,-99.99,,,0.10,weatherlink.com 1.10,2013-01-13 21:36:00,
2013-01-13 15:51:00,49.9,38.0,30.91,North,5,12.0,-999.0,65,-99.99,,,0.10,weatherlink.com 1.10,2013-01-13 21:51:00,
2013-01-13 16:06:00,49.9,38.0,30.92,NNW,345,4.0,-999.0,65,-99.99,,,0.10,weatherlink.com 1.10,2013-01-13 22:06:00,
2013-01-13 16:21:00,50.4,39.0,30.92,NNW,346,4.0,-999.0,65,-99.99,,,0.10,weatherlink.com 1.10,2013-01-13 22:21:00,
2013-01-13 16:36:00,49.6,38.0,30.92,NNW,343,9.0,-999.0,64,-99.99,,,0.10,weatherlink.com 1.10,2013-01-13 22:36:00,
2013-01-13 16:51:00,48.8,37.0,30.92,North,11,8.0,-999.0,65,-99.99,,,0.10,weatherlink.com 1.10,2013-01-13 22:51:00,
2013-01-13 17:06:00,48.6,38.0,30.93,North,360,5.0,-999.0,66,-99.99,,,0.10,weatherlink.com 1.10,2013-01-13 23:06:00,
2013-01-13 17:21:00,48.1,37.0,30.94,NNW,338,12.0,-999.0,66,-99.99,,,0.10,weatherlink.com 1.10,2013-01-13 23:21:00,
2013-01-13 17:36:00,47.7,37.0,30.93,North,9,2.0,-999.0,67,-99.99,,,0.10,weatherlink.com 1.10,2013-01-13 23:36:00,
2013-01-13 17:51:00,47.1,37.0,30.94,North,5,6.0,-999.0,68,-99.99,,,0.10,weatherlink.com 1.10,2013-01-13 23:51:00,
2013-01-13 18:06:00,46.6,36.0,30.93,NNW,334,9.0,-999.0,68,-99.99,,,0.10,weatherlink.com 1.10,2013-01-14 00:06:00,
2013-01-13 18:21:00,46.1,36.0,30.94,NNW,333,7.0,-999.0,69,-99.99,,,0.10,weatherlink.com 1.10,2013-01-14 00:21:00,
2013-01-13 18:36:00,45.6,36.0,30.94,North,350,4.0,-999.0,70,-99.99,,,0.10,weatherlink.com 1.10,2013-01-14 00:36:00,
2013-01-13 18:51:00,45.3,36.0,30.95,NNW,345,6.0,-999.0,71,-99.99,,,0.10,weatherlink.com 1.10,2013-01-14 00:51:00,
2013-01-13 19:06:00,44.9,36.0,30.95,NNW,348,5.0,-999.0,72,-99.99,,,0.10,weatherlink.com 1.10,2013-01-14 01:06:00,
2013-01-13 19:21:00,44.6,36.0,30.96,North,350,3.0,-999.0,72,-99.99,,,0.10,weatherlink.com 1.10,2013-01-14 01:21:00,
2013-01-13 19:36:00,44.2,36.0,30.96,North,355,6.0,-999.0,72,-99.99,,,0.10,weatherlink.com 1.10,2013-01-14 01:36:00,
2013-01-13 19:51:00,43.9,35.0,30.96,North,355,6.0,-999.0,72,-99.99,,,0.10,weatherlink.com 1.10,2013-01-14 01:51:00,
2013-01-13 20:06:00,43.6,35.0,30.96,NNE,20,4.0,-999.0,72,-99.99,,,0.10,weatherlink.com 1.10,2013-01-14 02:06:00,
2013-01-13 20:21:00,43.2,35.0,30.98,North,355,4.0,-999.0,73,-99.99,,,0.10,weatherlink.com 1.10,2013-01-14 02:21:00,
2013-01-13 20:36:00,42.6,35.0,30.98,NE,40,1.0,-999.0,73,-99.99,,,0.10,weatherlink.com 1.10,2013-01-14 02:36:00,
2013-01-13 20:51:00,42.2,34.0,30.99,North,360,0.0,-999.0,74,-99.99,,,0.10,weatherlink.com 1.10,2013-01-14 02:51:00,
2013-01-13 21:06:00,41.9,34.0,31.00,North,351,1.0,-999.0,74,-99.99,,,0.10,weatherlink.com 1.10,2013-01-14 03:06:00,
2013-01-13 21:21:00,41.4,34.0,31.00,North,355,0.0,-999.0,75,-99.99,,,0.10,weatherlink.com 1.10,2013-01-14 03:21:00,
2013-01-13 21:36:00,41.1,34.0,31.00,North,355,2.0,-999.0,76,-99.99,,,0.10,weatherlink.com 1.10,2013-01-14 03:36:00,
2013-01-13 21:51:00,40.9,34.0,31.00,North,355,2.0,-999.0,76,-99.99,,,0.10,weatherlink.com 1.10,2013-01-14 03:51:00,
2013-01-13 22:06:00,40.7,34.0,31.01,NNW,348,5.0,-999.0,76,-99.99,,,0.10,weatherlink.com 1.10,2013-01-14 04:06:00,
2013-01-13 22:21:00,40.6,34.0,31.00,North,350,3.0,-999.0,76,-99.99,,,0.10,weatherlink.com 1.10,2013-01-14 04:21:00,
2013-01-13 22:36:00,40.3,33.0,31.01,North,355,3.0,-999.0,76,-99.99,,,0.10,weatherlink.com 1.10,2013-01-14 04:36:00,
2013-01-13 22:51:00,40.1,33.0,31.00,North,355,5.0,-999.0,76,-99.99,,,0.10,weatherlink.com 1.10,2013-01-14 04:51:00,
2013-01-13 23:06:00,39.9,33.0,31.00,North,350,4.0,-999.0,76,-99.99,,,0.10,weatherlink.com 1.10,2013-01-14 05:06:00,
2013-01-13 23:21:00,39.6,33.0,31.01,North,355,4.0,-999.0,77,-99.99,,,0.10,weatherlink.com 1.10,2013-01-14 05:21:00,
2013-01-13 23:36:00,39.5,33.0,31.01,NNW,347,4.0,-999.0,77,-99.99,,,0.10,weatherlink.com 1.10,2013-01-14 05:36:00,
2013-01-13 23:51:00,39.3,33.0,31.01,ENE,70,2.0,-999.0,77,-99.99,,,0.00,weatherlink.com 1.10,2013-01-14 05:51:00,